,,Stat6,,Stat2,,Stat8,,Stat9,,Stat10,,Wind1,,Wind1,
time,status,PA1M_AVG,status,PR1M_SUM,status,RH1M_AVG,status,SR1M_AVG,status,TA1M_AVG,status,W1dAve1m,status,W1sAve1m,
2006-02-24, 00:00:01,VALID,916.082,VALID,0,VALID,99.5056,VALID,-0.0679233,VALID,20.2502,VALID,30,VALID,0,
2006-02-24, 00:01:00,VALID,916.074,VALID,0,VALID,99.5361,VALID,-0.0339617,VALID,20.2634,VALID,30,VALID,0,
2006-02-24, 00:02:00,VALID,916.06,VALID,0,VALID,99.5883,VALID,-0.0509425,VALID,20.2795,VALID,30,VALID,0,
2006-02-24, 00:03:00,VALID,916.043,VALID,0,VALID,99.5933,VALID,-0.0679233,VALID,20.2793,VALID,30,VALID,0,
2006-02-24, 00:04:00,VALID,916.026,VALID,0,VALID,99.5908,VALID,-0.0679233,VALID,20.2994,VALID,30,VALID,0,
2006-02-24, 00:05:00,VALID,916.002,VALID,0,VALID,99.559,VALID,-0.0849042,VALID,20.3024,VALID,30,VALID,0,
2006-02-24, 00:06:00,VALID,915.985,VALID,0,VALID,99.5794,VALID,-0.0679233,VALID,20.2962,VALID,30,VALID,0,
2006-02-24, 00:07:00,VALID,915.955,VALID,0,VALID,99.5895,VALID,-0.0169808,VALID,20.3024,VALID,30,VALID,0,
2006-02-24, 00:08:00,VALID,915.951,VALID,0,VALID,99.5959,VALID,0.0339617,VALID,20.2944,VALID,30,VALID,0,
2006-02-24, 00:09:00,VALID,915.936,VALID,0,VALID,99.6073,VALID,0.0169808,VALID,20.288,VALID,30,VALID,0.0110176,
2006-02-24, 00:10:00,VALID,915.914,VALID,0,VALID,99.6124,VALID,0.0169808,VALID,20.2877,VALID,30,VALID,0.0914634,
2006-02-24, 00:11:00,VALID,915.919,VALID,0,VALID,99.5883,VALID,0,VALID,20.2877,VALID,30,VALID,0.14227,
2006-02-24, 00:12:00,VALID,915.92,VALID,0,VALID,99.6111,VALID,0.0169808,VALID,20.2909,VALID,30,VALID,0.0330256,
2006-02-24, 00:13:00,VALID,915.926,VALID,0,VALID,99.5921,VALID,0.0509425,VALID,20.2974,VALID,30,VALID,0,
2006-02-24, 00:14:00,VALID,915.944,VALID,0,VALID,99.6073,VALID,0.0339617,VALID,20.2907,VALID,30,VALID,0,
2006-02-24, 00:15:00,VALID,915.941,VALID,0,VALID,99.648,VALID,0.0849042,VALID,20.2971,VALID,30,VALID,0,
2006-02-24, 00:16:00,VALID,915.938,VALID,0,VALID,99.6569,VALID,0.0849042,VALID,20.3004,VALID,30,VALID,0,
2006-02-24, 00:17:00,VALID,915.946,VALID,0,VALID,99.6162,VALID,0.0509425,VALID,20.2934,VALID,30,VALID,0,
2006-02-24, 00:18:00,VALID,915.944,VALID,0,VALID,99.5755,VALID,0.101885,VALID,20.2907,VALID,30,VALID,0,
2006-02-24, 00:19:01,VALID,915.948,VALID,0,VALID,99.6188,VALID,0.0169808,VALID,20.2683,VALID,30,VALID,0,
2006-02-24, 00:20:00,VALID,915.933,VALID,0,VALID,99.6582,VALID,0.0679233,VALID,20.2875,VALID,30,VALID,0.10883,
2006-02-24, 00:21:00,VALID,915.921,VALID,0,VALID,99.6188,VALID,0.0509425,VALID,20.2875,VALID,110,VALID,0.527253,
2006-02-24, 00:22:00,VALID,915.914,VALID,0,VALID,99.5933,VALID,0.0849042,VALID,20.2845,VALID,201,VALID,0.381288,
2006-02-24, 00:23:00,VALID,915.905,VALID,0,VALID,99.5768,VALID,0.0509425,VALID,20.2778,VALID,201,VALID,0.151867,
2006-02-24, 00:24:00,VALID,915.895,VALID,0,VALID,99.5794,VALID,0.0509425,VALID,20.2845,VALID,201,VALID,0,
2006-02-24, 00:25:00,VALID,915.892,VALID,0,VALID,99.6607,VALID,0.0679233,VALID,20.2909,VALID,201,VALID,0.000372024,
2006-02-24, 00:26:01,VALID,915.894,VALID,0,VALID,99.7154,VALID,0.0339617,VALID,20.3173,VALID,196,VALID,0.318954,
2006-02-24, 00:27:00,VALID,915.894,VALID,0,VALID,99.573,VALID,0.0509425,VALID,20.3268,VALID,71,VALID,0.595846,
2006-02-24, 00:28:00,VALID,915.901,VALID,0,VALID,99.4051,VALID,0.0169808,VALID,20.3036,VALID,62,VALID,0.794331,
2006-02-24, 00:29:00,VALID,915.884,VALID,0,VALID,99.2793,VALID,0.0339617,VALID,20.3068,VALID,62,VALID,0.64707,
2006-02-24, 00:30:00,VALID,915.859,VALID,0,VALID,99.2169,VALID,0.0509425,VALID,20.2745,VALID,62,VALID,0.294398,
2006-02-24, 00:31:00,VALID,915.831,VALID,0,VALID,99.1826,VALID,0.0509425,VALID,20.2586,VALID,62,VALID,0.296007,
2006-02-24, 00:32:00,VALID,915.803,VALID,0,VALID,99.25,VALID,0.0339617,VALID,20.2328,VALID,62,VALID,0.2742,
2006-02-24, 00:33:00,VALID,915.777,VALID,0,VALID,99.3594,VALID,0.0509425,VALID,20.2228,VALID,87,VALID,0.433594,
2006-02-24, 00:34:00,VALID,915.732,VALID,0,VALID,99.409,VALID,0.0509425,VALID,20.1972,VALID,155,VALID,0.727951,
2006-02-24, 00:35:01,VALID,915.711,VALID,0,VALID,99.4814,VALID,0.0169808,VALID,20.1748,VALID,165,VALID,0.80069,
2006-02-24, 00:36:00,VALID,915.695,VALID,0,VALID,99.5539,VALID,0.0169808,VALID,20.149,VALID,165,VALID,0.772879,
2006-02-24, 00:37:00,VALID,915.692,VALID,0,VALID,99.6417,VALID,0.0509425,VALID,20.1296,VALID,166,VALID,0.610937,
2006-02-24, 00:38:01,VALID,915.687,VALID,0,VALID,99.7205,VALID,0.0679233,VALID,20.1129,VALID,166,VALID,0.517113,
2006-02-24, 00:39:01,VALID,915.695,VALID,0,VALID,99.7943,VALID,0.0339617,VALID,20.1035,VALID,166,VALID,0.304497,
2006-02-24, 00:40:00,VALID,915.682,VALID,0,VALID,99.8566,VALID,0,VALID,20.1037,VALID,166,VALID,0,
2006-02-24, 00:41:00,VALID,915.675,VALID,0,VALID,99.8604,VALID,0.0509425,VALID,20.1139,VALID,166,VALID,0.00472384,
2006-02-24, 00:42:00,VALID,915.662,VALID,0,VALID,99.8286,VALID,0.0169808,VALID,20.0908,VALID,166,VALID,0.0608259,
2006-02-24, 00:43:00,VALID,915.645,VALID,0,VALID,99.6709,VALID,0.0339617,VALID,20.0744,VALID,166,VALID,0.247024,
2006-02-24, 00:44:01,VALID,915.62,VALID,0,VALID,99.5832,VALID,0.0169808,VALID,20.0259,VALID,146,VALID,0.489139,
2006-02-24, 00:45:00,VALID,915.602,VALID,0,VALID,99.6773,VALID,0.0509425,VALID,20.0234,VALID,140,VALID,0.78125,
2006-02-24, 00:46:01,VALID,915.579,VALID,0,VALID,99.7841,VALID,0.0169808,VALID,19.9965,VALID,135,VALID,0.578311,
2006-02-24, 00:47:00,VALID,915.569,VALID,0,VALID,99.9741,VALID,0.0509425,VALID,19.9906,VALID,124,VALID,0.853906,
2006-02-24, 00:48:00,VALID,915.544,VALID,0,VALID,100,VALID,0.0849042,VALID,19.9744,VALID,110,VALID,0.652249,
2006-02-24, 00:49:00,VALID,915.507,VALID,0,VALID,100,VALID,0.0339617,VALID,19.9548,VALID,110,VALID,0.625186,
2006-02-24, 00:50:01,VALID,915.466,VALID,0,VALID,100,VALID,0.0339617,VALID,19.9518,VALID,119,VALID,0.419389,
2006-02-24, 00:51:00,VALID,915.413,VALID,0,VALID,100,VALID,0.0509425,VALID,19.9553,VALID,146,VALID,0.690625,
2006-02-24, 00:52:00,VALID,915.378,VALID,0,VALID,100,VALID,0.0339617,VALID,19.9585,VALID,153,VALID,0.772569,
2006-02-24, 00:53:00,VALID,915.34,VALID,0,VALID,100,VALID,0.0169808,VALID,19.9615,VALID,139,VALID,0.733994,
2006-02-24, 00:54:00,VALID,915.314,VALID,0,VALID,100,VALID,0,VALID,19.9585,VALID,153,VALID,0.537464,
2006-02-24, 00:55:00,VALID,915.301,VALID,0,VALID,100,VALID,0.0339617,VALID,19.9747,VALID,145,VALID,0.577943,
2006-02-24, 00:56:00,VALID,915.287,VALID,0,VALID,100,VALID,0.0169808,VALID,19.9747,VALID,139,VALID,0.33457,
2006-02-24, 00:57:00,VALID,915.267,VALID,0,VALID,100,VALID,-0.0169808,VALID,19.9811,VALID,147,VALID,0.520712,
2006-02-24, 00:58:01,VALID,915.258,VALID,0,VALID,100,VALID,0.0509425,VALID,19.9871,VALID,165,VALID,0.576853,
2006-02-24, 00:59:00,VALID,915.255,VALID,0,VALID,100,VALID,0.0169808,VALID,19.9976,VALID,158,VALID,0.819404,
2006-02-24, 01:00:01,VALID,915.23,VALID,0,VALID,100,VALID,0.101885,VALID,19.9739,VALID,158,VALID,0.87843,
2006-02-24, 01:01:00,VALID,915.228,VALID,0,VALID,100,VALID,0.0339617,VALID,19.9782,VALID,158,VALID,0.611192,
2006-02-24, 01:02:00,VALID,915.226,VALID,0,VALID,100,VALID,0.0509425,VALID,19.9809,VALID,147,VALID,0.586648,
2006-02-24, 01:03:00,VALID,915.227,VALID,0,VALID,100,VALID,0.0509425,VALID,19.9849,VALID,141,VALID,0.358016,
2006-02-24, 01:04:00,VALID,915.228,VALID,0,VALID,100,VALID,0.0169808,VALID,19.9806,VALID,146,VALID,0.739025,
2006-02-24, 01:05:00,VALID,915.232,VALID,0,VALID,100,VALID,0.0509425,VALID,19.9744,VALID,133,VALID,0.471418,
2006-02-24, 01:06:01,VALID,915.224,VALID,0,VALID,100,VALID,0.0339617,VALID,19.9714,VALID,126,VALID,0.396949,
2006-02-24, 01:07:00,VALID,915.192,VALID,0,VALID,100,VALID,0.0509425,VALID,19.9675,VALID,126,VALID,0.0407366,
2006-02-24, 01:08:01,VALID,915.165,VALID,0,VALID,100,VALID,0.0679233,VALID,19.9816,VALID,126,VALID,0,
2006-02-24, 01:09:00,VALID,915.123,VALID,0,VALID,100,VALID,0.0169808,VALID,19.9814,VALID,126,VALID,0.022017,
2006-02-24, 01:10:00,VALID,915.091,VALID,0,VALID,100,VALID,0,VALID,19.9779,VALID,126,VALID,0.209375,
2006-02-24, 01:11:00,VALID,915.068,VALID,0,VALID,100,VALID,0,VALID,19.9777,VALID,127,VALID,0.244284,
2006-02-24, 01:12:01,VALID,915.03,VALID,0,VALID,100,VALID,0.0169808,VALID,19.9747,VALID,132,VALID,0.395579,
2006-02-24, 01:13:00,VALID,915.016,VALID,0,VALID,100,VALID,0.0339617,VALID,19.9583,VALID,132,VALID,0.454603,
2006-02-24, 01:14:00,VALID,915.005,VALID,0,VALID,100,VALID,0,VALID,19.9555,VALID,132,VALID,0.361151,
2006-02-24, 01:15:00,VALID,914.978,VALID,0,VALID,100,VALID,0.0169808,VALID,19.9555,VALID,132,VALID,0.261328,
2006-02-24, 01:16:01,VALID,914.964,VALID,0,VALID,100,VALID,0.0169808,VALID,19.9458,VALID,132,VALID,0.159598,
2006-02-24, 01:17:00,VALID,914.961,VALID,0,VALID,100,VALID,0.0169808,VALID,19.9453,VALID,132,VALID,0,
2006-02-24, 01:18:00,VALID,914.945,VALID,0,VALID,100,VALID,0,VALID,19.9451,VALID,132,VALID,0.119093,
2006-02-24, 01:19:00,VALID,914.928,VALID,0,VALID,100,VALID,0.0339617,VALID,19.9456,VALID,132,VALID,0.0139509,
2006-02-24, 01:20:00,VALID,914.913,VALID,0,VALID,100,VALID,0.0849042,VALID,19.9359,VALID,132,VALID,0.136905,
2006-02-24, 01:21:01,VALID,914.897,VALID,0,VALID,100,VALID,0,VALID,19.9264,VALID,132,VALID,0.243389,
2006-02-24, 01:22:00,VALID,914.892,VALID,0,VALID,100,VALID,0.0339617,VALID,19.9163,VALID,132,VALID,0.27381,
2006-02-24, 01:23:01,VALID,914.88,VALID,0,VALID,100,VALID,0.0339617,VALID,19.92,VALID,132,VALID,0.363917,
2006-02-24, 01:24:01,VALID,914.865,VALID,0,VALID,100,VALID,0.0679233,VALID,19.9197,VALID,132,VALID,0.396434,
2006-02-24, 01:25:00,VALID,914.852,VALID,0,VALID,100,VALID,0,VALID,19.9133,VALID,132,VALID,0.334339,
2006-02-24, 01:26:00,VALID,914.848,VALID,0,VALID,100,VALID,0.0169808,VALID,19.9036,VALID,132,VALID,0.329823,
2006-02-24, 01:27:00,VALID,914.831,VALID,0,VALID,100,VALID,0.0339617,VALID,19.8934,VALID,132,VALID,0.356836,
2006-02-24, 01:28:00,VALID,914.813,VALID,0,VALID,100,VALID,0.0169808,VALID,19.8976,VALID,132,VALID,0.697674,
2006-02-24, 01:29:01,VALID,914.802,VALID,0,VALID,100,VALID,0.0169808,VALID,19.9133,VALID,126,VALID,0.807049,
2006-02-24, 01:30:00,VALID,914.789,VALID,0,VALID,100,VALID,0.0169808,VALID,19.9195,VALID,110,VALID,0.660792,
2006-02-24, 01:31:01,VALID,914.777,VALID,0,VALID,100,VALID,0.0509425,VALID,19.9095,VALID,133,VALID,0.474254,
2006-02-24, 01:32:00,VALID,914.761,VALID,0,VALID,100,VALID,0.0339617,VALID,19.923,VALID,130,VALID,0.841388,
2006-02-24, 01:33:01,VALID,914.753,VALID,0,VALID,100,VALID,0,VALID,19.9232,VALID,136,VALID,1.06194,
2006-02-24, 01:34:01,VALID,914.733,VALID,0,VALID,100,VALID,0.0339617,VALID,19.9235,VALID,136,VALID,0.905878,
2006-02-24, 01:35:00,VALID,914.73,VALID,0,VALID,100,VALID,0,VALID,19.9359,VALID,140,VALID,0.732777,
2006-02-24, 01:36:00,VALID,914.707,VALID,0,VALID,100,VALID,0.0339617,VALID,19.9259,VALID,138,VALID,0.786644,
2006-02-24, 01:37:00,VALID,914.676,VALID,0,VALID,100,VALID,0.0509425,VALID,19.9451,VALID,140,VALID,0.855097,
2006-02-24, 01:38:00,VALID,914.643,VALID,0,VALID,100,VALID,0.0849042,VALID,19.9438,VALID,138,VALID,0.903054,
2006-02-24, 01:39:00,VALID,914.626,VALID,0,VALID,100,VALID,0.0849042,VALID,19.9473,VALID,135,VALID,0.771701,
2006-02-24, 01:40:00,VALID,914.606,VALID,0,VALID,100,VALID,0.0849042,VALID,19.9578,VALID,137,VALID,0.949219,
2006-02-24, 01:41:00,VALID,914.579,VALID,0,VALID,100,VALID,0.0679233,VALID,19.951,VALID,139,VALID,0.690727,
2006-02-24, 01:42:01,VALID,914.553,VALID,0,VALID,100,VALID,0.0849042,VALID,19.9374,VALID,133,VALID,1.12686,
2006-02-24, 01:43:00,VALID,914.551,VALID,0,VALID,100,VALID,0.101885,VALID,19.9279,VALID,132,VALID,1.14063,
2006-02-24, 01:44:01,VALID,914.533,VALID,0,VALID,100,VALID,0.101885,VALID,19.9225,VALID,133,VALID,1.05078,
2006-02-24, 01:45:01,VALID,914.538,VALID,0,VALID,100,VALID,0.101885,VALID,19.8896,VALID,120,VALID,1.21236,
2006-02-24, 01:46:01,VALID,914.524,VALID,0,VALID,100,VALID,0.0509425,VALID,19.8834,VALID,124,VALID,1.28525,
2006-02-24, 01:47:00,VALID,914.506,VALID,0,VALID,100,VALID,0.0849042,VALID,19.8643,VALID,121,VALID,1.2619,
2006-02-24, 01:48:00,VALID,914.479,VALID,0,VALID,100,VALID,0.0849042,VALID,19.8379,VALID,124,VALID,1.13263,
2006-02-24, 01:49:00,VALID,914.457,VALID,0,VALID,100,VALID,0.0849042,VALID,19.7991,VALID,121,VALID,1.24455,
2006-02-24, 01:50:01,VALID,914.462,VALID,0,VALID,100,VALID,0.0849042,VALID,19.7862,VALID,114,VALID,1.37402,
2006-02-24, 01:51:00,VALID,914.451,VALID,0,VALID,100,VALID,0.0679233,VALID,19.7703,VALID,119,VALID,1.35884,
2006-02-24, 01:52:00,VALID,914.437,VALID,0,VALID,100,VALID,0.0509425,VALID,19.7474,VALID,118,VALID,1.269,
2006-02-24, 01:53:00,VALID,914.428,VALID,0,VALID,100,VALID,0.101885,VALID,19.7218,VALID,108,VALID,0.962054,
2006-02-24, 01:54:01,VALID,914.438,VALID,0,VALID,100,VALID,0.0849042,VALID,19.7089,VALID,118,VALID,0.729226,
2006-02-24, 01:55:00,VALID,914.425,VALID,0,VALID,100,VALID,0.0849042,VALID,19.7054,VALID,126,VALID,1.34066,
2006-02-24, 01:56:01,VALID,914.408,VALID,0,VALID,100,VALID,0.0679233,VALID,19.7024,VALID,142,VALID,0.972656,
2006-02-24, 01:57:00,VALID,914.385,VALID,0,VALID,100,VALID,0.0849042,VALID,19.6791,VALID,126,VALID,0.91183,
2006-02-24, 01:58:00,VALID,914.364,VALID,0,VALID,100,VALID,0.0849042,VALID,19.6801,VALID,142,VALID,0.963816,
2006-02-24, 01:59:00,VALID,914.339,VALID,0,VALID,100,VALID,0.0679233,VALID,19.6801,VALID,157,VALID,0.967361,
2006-02-24, 02:00:01,VALID,914.312,VALID,0,VALID,100,VALID,0.0509425,VALID,19.6801,VALID,160,VALID,0.78468,
2006-02-24, 02:01:00,VALID,914.282,VALID,0,VALID,100,VALID,0.0849042,VALID,19.6927,VALID,145,VALID,0.903706,
2006-02-24, 02:02:00,VALID,914.258,VALID,0,VALID,100,VALID,0.0509425,VALID,19.6895,VALID,170,VALID,0.428234,
2006-02-24, 02:03:00,VALID,914.218,VALID,0,VALID,100,VALID,0.0679233,VALID,19.6932,VALID,174,VALID,0.664063,
2006-02-24, 02:04:00,VALID,914.195,VALID,0,VALID,100,VALID,0.0679233,VALID,19.693,VALID,173,VALID,1.05996,
2006-02-24, 02:05:00,VALID,914.179,VALID,0,VALID,100,VALID,0.0339617,VALID,19.7062,VALID,173,VALID,1.08698,
2006-02-24, 02:06:00,VALID,914.149,VALID,0,VALID,100,VALID,0.0509425,VALID,19.7027,VALID,173,VALID,0.779251,
2006-02-24, 02:07:01,VALID,914.123,VALID,0,VALID,100,VALID,0.0849042,VALID,19.7089,VALID,165,VALID,0.801847,
2006-02-24, 02:08:00,VALID,914.116,VALID,0,VALID,100,VALID,0.101885,VALID,19.7121,VALID,165,VALID,0.518895,
2006-02-24, 02:09:00,VALID,914.114,VALID,0,VALID,100,VALID,0.0339617,VALID,19.7186,VALID,165,VALID,0.335175,
2006-02-24, 02:10:01,VALID,914.104,VALID,0,VALID,100,VALID,0.0849042,VALID,19.7121,VALID,165,VALID,0.483445,
2006-02-24, 02:11:01,VALID,914.095,VALID,0,VALID,100,VALID,0.101885,VALID,19.7156,VALID,149,VALID,0.545508,
2006-02-24, 02:12:01,VALID,914.103,VALID,0,VALID,100,VALID,0.0849042,VALID,19.7154,VALID,161,VALID,0.463194,
2006-02-24, 02:13:01,VALID,914.088,VALID,0,VALID,100,VALID,0.0339617,VALID,19.729,VALID,162,VALID,0.394701,
2006-02-24, 02:14:01,VALID,914.079,VALID,0,VALID,100,VALID,0.0849042,VALID,19.7124,VALID,162,VALID,0.460537,
2006-02-24, 02:15:01,VALID,914.074,VALID,0,VALID,100,VALID,0.0169808,VALID,19.6927,VALID,157,VALID,0.539621,
2006-02-24, 02:16:00,VALID,914.061,VALID,0,VALID,100,VALID,0.0679233,VALID,19.7092,VALID,135,VALID,0.648607,
2006-02-24, 02:17:00,VALID,914.055,VALID,0,VALID,100,VALID,0.0509425,VALID,19.7126,VALID,122,VALID,0.53995,
2006-02-24, 02:18:01,VALID,914.042,VALID,0,VALID,100,VALID,0.0849042,VALID,19.7164,VALID,136,VALID,0.359756,
2006-02-24, 02:19:00,VALID,914.05,VALID,0,VALID,100,VALID,0.0509425,VALID,19.7059,VALID,132,VALID,0.301067,
2006-02-24, 02:20:01,VALID,914.032,VALID,0,VALID,100,VALID,0.0679233,VALID,19.6863,VALID,99,VALID,0.535866,
2006-02-24, 02:21:01,VALID,914.022,VALID,0,VALID,100,VALID,0.0679233,VALID,19.6803,VALID,69,VALID,0.584695,
2006-02-24, 02:22:01,VALID,914.021,VALID,0,VALID,100,VALID,0.0679233,VALID,19.6642,VALID,59,VALID,0.761905,
2006-02-24, 02:23:01,VALID,914,VALID,0,VALID,100,VALID,-0.0169808,VALID,19.6525,VALID,53,VALID,0.563227,
2006-02-24, 02:24:01,VALID,913.992,VALID,0,VALID,100,VALID,0,VALID,19.6328,VALID,54,VALID,0.40554,
2006-02-24, 02:25:01,VALID,913.959,VALID,0,VALID,100,VALID,0,VALID,19.6333,VALID,60,VALID,0.334077,
2006-02-24, 02:26:01,VALID,913.939,VALID,0,VALID,100,VALID,-0.0169808,VALID,19.6363,VALID,84,VALID,0.453125,
2006-02-24, 02:27:00,VALID,913.927,VALID,0,VALID,100,VALID,-0.0339617,VALID,19.6559,VALID,115,VALID,0.456555,
2006-02-24, 02:28:01,VALID,913.912,VALID,0,VALID,100,VALID,-0.0509425,VALID,19.6557,VALID,73,VALID,0.31577,
2006-02-24, 02:29:01,VALID,913.898,VALID,0,VALID,100,VALID,-0.0339617,VALID,19.6293,VALID,57,VALID,0.385653,
2006-02-24, 02:30:01,VALID,913.896,VALID,0,VALID,100,VALID,-0.0509425,VALID,19.6301,VALID,21,VALID,0.677782,
2006-02-24, 02:31:01,VALID,913.887,VALID,0,VALID,100,VALID,-0.0339617,VALID,19.6172,VALID,17,VALID,0.633956,
2006-02-24, 02:32:01,VALID,913.88,VALID,0,VALID,100,VALID,-0.0339617,VALID,19.601,VALID,17,VALID,0.394159,
2006-02-24, 02:33:01,VALID,913.882,VALID,0,VALID,100,VALID,-0.0679233,VALID,19.5843,VALID,17,VALID,0.322049,
2006-02-24, 02:34:01,VALID,913.883,VALID,0,VALID,100,VALID,-0.0679233,VALID,19.5948,VALID,17,VALID,0.0559593,
2006-02-24, 02:35:01,VALID,913.88,VALID,0,VALID,100,VALID,-0.0169808,VALID,19.5915,VALID,17,VALID,0,
2006-02-24, 02:36:00,VALID,913.893,VALID,0,VALID,100,VALID,-0.0849042,VALID,19.5883,VALID,17,VALID,0,
2006-02-24, 02:37:01,VALID,913.886,VALID,0,VALID,100,VALID,-0.0509425,VALID,19.5819,VALID,17,VALID,0,
2006-02-24, 02:38:01,VALID,913.872,VALID,0,VALID,100,VALID,0.0849042,VALID,19.5734,VALID,17,VALID,0,
2006-02-24, 02:39:01,VALID,913.869,VALID,0,VALID,100,VALID,0.0679233,VALID,19.5672,VALID,17,VALID,0.0861151,
2006-02-24, 02:40:01,VALID,913.863,VALID,0,VALID,100,VALID,0.0679233,VALID,19.5543,VALID,17,VALID,0.52066,
2006-02-24, 02:41:01,VALID,913.857,VALID,0,VALID,100,VALID,0.101885,VALID,19.5187,VALID,17,VALID,0.68378,
2006-02-24, 02:42:01,VALID,913.844,VALID,0,VALID,100,VALID,0.0679233,VALID,19.4735,VALID,17,VALID,0.542878,
2006-02-24, 02:43:01,VALID,913.846,VALID,0,VALID,100,VALID,-0.0169808,VALID,19.459,VALID,17,VALID,0.345052,
2006-02-24, 02:44:01,VALID,913.842,VALID,0,VALID,100,VALID,0,VALID,19.4593,VALID,17,VALID,0.212054,
2006-02-24, 02:45:01,VALID,913.835,VALID,0,VALID,100,VALID,-0.0169808,VALID,19.4553,VALID,17,VALID,0.267188,
2006-02-24, 02:46:01,VALID,913.83,VALID,0,VALID,100,VALID,0,VALID,19.4394,VALID,17,VALID,0.421148,
2006-02-24, 02:47:01,VALID,913.839,VALID,0,VALID,100,VALID,-0.0339617,VALID,19.42,VALID,17,VALID,0.44215,
2006-02-24, 02:48:01,VALID,913.834,VALID,0,VALID,100,VALID,-0.0509425,VALID,19.4135,VALID,17,VALID,0.163681,
2006-02-24, 02:49:01,VALID,913.837,VALID,0,VALID,100,VALID,0,VALID,19.4297,VALID,17,VALID,0.0730378,
2006-02-24, 02:50:01,VALID,913.828,VALID,0,VALID,100,VALID,-0.0169808,VALID,19.4235,VALID,17,VALID,0.354651,
2006-02-24, 02:51:01,VALID,913.841,VALID,0,VALID,100,VALID,0,VALID,19.4295,VALID,17,VALID,0.377038,
2006-02-24, 02:52:01,VALID,913.84,VALID,0,VALID,100,VALID,-0.0169808,VALID,19.4302,VALID,17,VALID,0.487537,
2006-02-24, 02:53:01,VALID,913.848,VALID,0,VALID,100,VALID,-0.0169808,VALID,19.4299,VALID,17,VALID,0.524826,
2006-02-24, 02:54:01,VALID,913.855,VALID,0,VALID,100,VALID,-0.0339617,VALID,19.4235,VALID,22,VALID,0.577148,
2006-02-24, 02:55:01,VALID,913.86,VALID,0,VALID,100,VALID,-0.0169808,VALID,19.4493,VALID,40,VALID,0.707386,
2006-02-24, 02:56:01,VALID,913.868,VALID,0,VALID,100,VALID,-0.0679233,VALID,19.4911,VALID,41,VALID,0.872275,
2006-02-24, 02:57:00,VALID,913.879,VALID,0,VALID,100,VALID,-0.0169808,VALID,19.4973,VALID,41,VALID,0.904119,
2006-02-24, 02:58:00,VALID,913.888,VALID,0,VALID,100,VALID,0,VALID,19.5401,VALID,41,VALID,0.870094,
2006-02-24, 02:59:00,VALID,913.898,VALID,0,VALID,100,VALID,-0.0169808,VALID,19.5687,VALID,44,VALID,0.823438,
2006-02-24, 03:00:00,VALID,913.908,VALID,0,VALID,100,VALID,-0.0169808,VALID,19.5851,VALID,51,VALID,0.897693,
2006-02-24, 03:01:00,VALID,913.906,VALID,0,VALID,100,VALID,-0.0169808,VALID,19.5814,VALID,55,VALID,1.03162,
2006-02-24, 03:02:00,VALID,913.908,VALID,0,VALID,100,VALID,-0.0509425,VALID,19.5945,VALID,51,VALID,1.09048,
2006-02-24, 03:03:00,VALID,913.91,VALID,0,VALID,100,VALID,-0.0169808,VALID,19.6035,VALID,40,VALID,1.06481,
2006-02-24, 03:04:00,VALID,913.909,VALID,0,VALID,100,VALID,-0.0169808,VALID,19.6234,VALID,47,VALID,1.05413,
2006-02-24, 03:05:00,VALID,913.9,VALID,0,VALID,100,VALID,-0.0849042,VALID,19.6303,VALID,38,VALID,1.12607,
2006-02-24, 03:06:00,VALID,913.883,VALID,0,VALID,100,VALID,-0.101885,VALID,19.6502,VALID,35,VALID,1.07279,
2006-02-24, 03:07:00,VALID,913.876,VALID,0,VALID,100,VALID,-0.0509425,VALID,19.6632,VALID,30,VALID,0.564862,
2006-02-24, 03:08:00,VALID,913.858,VALID,0,VALID,100,VALID,-0.0169808,VALID,19.6758,VALID,36,VALID,0.81468,
2006-02-24, 03:09:00,VALID,913.847,VALID,0,VALID,100,VALID,-0.0339617,VALID,19.685,VALID,34,VALID,0.68045,
2006-02-24, 03:10:00,VALID,913.847,VALID,0,VALID,100,VALID,-0.0339617,VALID,19.6982,VALID,27,VALID,0.617378,
2006-02-24, 03:11:00,VALID,913.847,VALID,0,VALID,100,VALID,-0.0169808,VALID,19.7176,VALID,12,VALID,0.698475,
2006-02-24, 03:12:00,VALID,913.842,VALID,0,VALID,100,VALID,-0.0169808,VALID,19.7243,VALID,360,VALID,0.496094,
2006-02-24, 03:13:00,VALID,913.839,VALID,0,VALID,100,VALID,-0.0339617,VALID,19.7303,VALID,354,VALID,0.765807,
2006-02-24, 03:14:00,VALID,913.841,VALID,0,VALID,100,VALID,-0.0509425,VALID,19.7335,VALID,349,VALID,0.509487,
2006-02-24, 03:15:00,VALID,913.82,VALID,0,VALID,100,VALID,-0.0169808,VALID,19.7571,VALID,345,VALID,0.405523,
2006-02-24, 03:16:00,VALID,913.824,VALID,0,VALID,100,VALID,0,VALID,19.7629,VALID,345,VALID,0.300872,
2006-02-24, 03:17:00,VALID,913.823,VALID,0,VALID,100,VALID,-0.0509425,VALID,19.7663,VALID,350,VALID,0.463368,
2006-02-24, 03:18:00,VALID,913.83,VALID,0,VALID,100,VALID,-0.0339617,VALID,19.7718,VALID,5,VALID,0.289807,
2006-02-24, 03:19:00,VALID,913.85,VALID,0,VALID,100,VALID,-0.0509425,VALID,19.7822,VALID,5,VALID,0.030878,
2006-02-24, 03:20:00,VALID,913.861,VALID,0,VALID,100,VALID,0,VALID,19.7887,VALID,5,VALID,0,
2006-02-24, 03:21:00,VALID,913.876,VALID,0,VALID,100,VALID,-0.0679233,VALID,19.782,VALID,5,VALID,0.0181641,
2006-02-24, 03:22:00,VALID,913.869,VALID,0,VALID,100,VALID,-0.0339617,VALID,19.7917,VALID,5,VALID,0,
2006-02-24, 03:23:00,VALID,913.867,VALID,0,VALID,100,VALID,-0.0339617,VALID,19.8049,VALID,5,VALID,0.12207,
2006-02-24, 03:24:00,VALID,913.861,VALID,0,VALID,100,VALID,-0.0169808,VALID,19.8108,VALID,5,VALID,0.211979,
2006-02-24, 03:25:00,VALID,913.835,VALID,0,VALID,100,VALID,-0.0169808,VALID,19.8205,VALID,15,VALID,0.958394,
2006-02-24, 03:26:00,VALID,913.831,VALID,0,VALID,100,VALID,0,VALID,19.8337,VALID,3,VALID,0.511719,
2006-02-24, 03:27:00,VALID,913.816,VALID,0,VALID,100,VALID,-0.0169808,VALID,19.8636,VALID,332,VALID,0.518864,
2006-02-24, 03:28:00,VALID,913.812,VALID,0,VALID,100,VALID,-0.0169808,VALID,19.8531,VALID,332,VALID,0.214571,
2006-02-24, 03:29:00,VALID,913.809,VALID,0,VALID,100,VALID,0.0339617,VALID,19.8461,VALID,332,VALID,0.112926,
2006-02-24, 03:30:00,VALID,913.798,VALID,0,VALID,100,VALID,-0.0339617,VALID,19.8305,VALID,332,VALID,0,
2006-02-24, 03:31:00,VALID,913.8,VALID,0,VALID,100,VALID,0,VALID,19.8374,VALID,332,VALID,0,
2006-02-24, 03:32:00,VALID,913.792,VALID,0,VALID,100,VALID,-0.0169808,VALID,19.8173,VALID,332,VALID,0,
2006-02-24, 03:33:00,VALID,913.78,VALID,0,VALID,100,VALID,-0.0169808,VALID,19.8267,VALID,332,VALID,0,
2006-02-24, 03:34:00,VALID,913.778,VALID,0,VALID,100,VALID,-0.0509425,VALID,19.8399,VALID,332,VALID,0,
2006-02-24, 03:35:00,VALID,913.762,VALID,0,VALID,100,VALID,-0.0169808,VALID,19.8631,VALID,332,VALID,0.012718,
2006-02-24, 03:36:00,VALID,913.755,VALID,0,VALID,100,VALID,-0.0509425,VALID,19.8693,VALID,332,VALID,0,
2006-02-24, 03:37:00,VALID,913.753,VALID,0,VALID,100,VALID,-0.0509425,VALID,19.8723,VALID,332,VALID,0,
2006-02-24, 03:38:00,VALID,913.737,VALID,0,VALID,100,VALID,-0.0169808,VALID,19.8658,VALID,332,VALID,0.00416667,
2006-02-24, 03:39:00,VALID,913.741,VALID,0,VALID,100,VALID,-0.0169808,VALID,19.8655,VALID,332,VALID,0,
2006-02-24, 03:40:00,VALID,913.733,VALID,0,VALID,100,VALID,0,VALID,19.866,VALID,332,VALID,0.0790334,